Knoxville, IA

7:43 PM CDT on April 22, 2018 (GMT -0500)
Knoxville Municipal

Weather History for KOXV - November, 2013

Change the Weather History Date:

Saturday, November 16, 2013

  Actual Average Record
Temperature  
Mean Temperature 56 °F -  
Max Temperature 66 °F 49 °F 89 °F (1997)
Min Temperature 46 °F 30 °F 0 °F (1959)
Degree Days  
Heating Degree Days 9    
Growing Degree Days 6 (Base 50)    
Moisture  
Dew Point 51 °F    
Average Humidity 78    
Maximum Humidity 88    
Minimum Humidity 68    
Precipitation  
Precipitation 0.02 in - - ()
Sea Level Pressure  
Sea Level Pressure 29.50 in    
Wind  
Wind Speed 15 mph (South)    
Max Wind Speed 25 mph    
Max Gust Speed 43 mph    
Visibility 10 miles    
Events Rain    
Averages and records for this station are not official NWS values.
T = Trace of Precipitation, MM = Missing Value Source: NWS Daily Summary

Daily Weather History Graph

Daily Weather History Graph

Search for Another Location

Airport or City:

Astronomy

Nov. 16, 2013 Rise Set
Actual Time 7:02 AM CST 4:51 PM CST
Civil Twilight 6:32 AM CST 5:21 PM CST
Nautical Twilight 5:58 AM CST 5:55 PM CST
Astronomical Twilight 5:26 AM CST 6:27 PM CST
Moon 4:28 PM CST (11/16) 5:58 AM CST (11/16)
Length of Visible Light 10h 49m
Length of Day
9h 49m
Waxing Gibbous, 99% of the Moon is Illuminated
Nov 16
Waxing Gibbous
Nov 17
Full
Nov 25
Last Quarter
Dec 2
New
Dec 9
First Quarter

Hourly Weather History & Observations

Time (CST) Temp. Windchill Dew Point Humidity Pressure Visibility Wind Dir Wind Speed Gust Speed Precip Events Conditions
12:15 AM 46.4 °F 41.9 °F 39.2 °F 76% 29.73 in 10.0 mi SSE 9.2 mph 16.1 mph N/A   Clear
12:35 AM 46.4 °F 41.5 °F 39.2 °F 76% 29.73 in 10.0 mi South 10.4 mph - N/A   Clear
12:55 AM 46.4 °F 41.9 °F 39.2 °F 76% 29.73 in 10.0 mi South 9.2 mph - N/A   Mostly Cloudy
1:15 AM 46.4 °F 40.7 °F 41.0 °F 81% 29.72 in 10.0 mi South 12.7 mph - N/A   Overcast
1:35 AM 48.2 °F - 41.0 °F 76% 29.71 in 10.0 mi South 15.0 mph 21.9 mph N/A   Overcast
1:55 AM 48.2 °F - 42.8 °F 82% 29.70 in 10.0 mi South 16.1 mph - N/A   Overcast
2:15 AM 48.2 °F - 42.8 °F 82% 29.70 in 10.0 mi South 16.1 mph - N/A   Overcast
2:35 AM 48.2 °F - 42.8 °F 82% 29.69 in 10.0 mi South 17.3 mph 24.2 mph N/A   Overcast
2:55 AM 50.0 °F - 44.6 °F 82% 29.69 in 10.0 mi South 17.3 mph 25.3 mph N/A   Overcast
3:15 AM 50.0 °F - 44.6 °F 82% 29.67 in 10.0 mi South 15.0 mph 24.2 mph N/A   Overcast
3:35 AM 50.0 °F - 44.6 °F 82% 29.66 in 10.0 mi South 18.4 mph 28.8 mph N/A   Overcast
3:55 AM 50.0 °F - 44.6 °F 82% 29.64 in 10.0 mi South 18.4 mph 27.6 mph N/A   Overcast
4:15 AM 50.0 °F - 44.6 °F 82% 29.63 in 10.0 mi South 17.3 mph 25.3 mph N/A   Overcast
4:35 AM 50.0 °F - 44.6 °F 82% 29.62 in 10.0 mi South 13.8 mph 20.7 mph N/A   Overcast
4:55 AM 50.0 °F - 44.6 °F 82% 29.62 in 10.0 mi South 12.7 mph 19.6 mph N/A   Overcast
5:15 AM 50.0 °F - 46.4 °F 87% 29.61 in 10.0 mi South 12.7 mph 18.4 mph N/A   Overcast
5:35 AM 50.0 °F - 46.4 °F 87% 29.60 in 10.0 mi South 13.8 mph 21.9 mph N/A   Overcast
5:55 AM 51.8 °F - 46.4 °F 82% 29.60 in 10.0 mi South 15.0 mph - N/A   Overcast
6:15 AM 51.8 °F - 46.4 °F 82% 29.59 in 10.0 mi South 13.8 mph - N/A   Overcast
6:35 AM 51.8 °F - 48.2 °F 88% 29.58 in 10.0 mi South 17.3 mph 27.6 mph N/A   Overcast
6:55 AM 53.6 °F - 48.2 °F 82% 29.57 in 10.0 mi South 12.7 mph 19.6 mph N/A   Overcast
7:15 AM 53.6 °F - 48.2 °F 82% 29.56 in 9.0 mi South 15.0 mph 21.9 mph N/A   Overcast
7:35 AM 53.6 °F - 50.0 °F 88% 29.55 in 9.0 mi South 15.0 mph 23.0 mph N/A   Overcast
7:55 AM 55.4 °F - 50.0 °F 82% 29.54 in 8.0 mi South 12.7 mph 25.3 mph N/A   Overcast
8:15 AM 55.4 °F - 50.0 °F 82% 29.53 in 9.0 mi SSE 12.7 mph 21.9 mph N/A   Overcast
8:35 AM 55.4 °F - 50.0 °F 82% 29.52 in 9.0 mi South 16.1 mph 23.0 mph N/A   Overcast
8:55 AM 55.4 °F - 50.0 °F 82% 29.50 in 9.0 mi SSE 17.3 mph 26.5 mph N/A   Overcast
9:15 AM 57.2 °F - 51.8 °F 82% 29.50 in 10.0 mi South 20.7 mph 27.6 mph N/A   Overcast
9:35 AM 57.2 °F - 51.8 °F 82% 29.50 in 10.0 mi South 18.4 mph 26.5 mph N/A   Overcast
9:55 AM 59.0 °F - 51.8 °F 77% 29.49 in 10.0 mi South 20.7 mph 27.6 mph N/A   Overcast
10:15 AM 59.0 °F - 51.8 °F 77% 29.49 in 10.0 mi South 16.1 mph 24.2 mph N/A   Overcast
10:35 AM 60.8 °F - 53.6 °F 77% 29.48 in 10.0 mi South 23.0 mph 32.2 mph N/A   Overcast
10:55 AM 60.8 °F - 53.6 °F 77% 29.47 in 10.0 mi South 20.7 mph 26.5 mph N/A   Overcast
11:15 AM 64.4 °F - 53.6 °F 68% 29.45 in 10.0 mi South 16.1 mph 28.8 mph N/A   Overcast
11:35 AM 64.4 °F - 53.6 °F 68% 29.43 in 10.0 mi South 24.2 mph 36.8 mph N/A   Overcast
11:55 AM 64.4 °F - 53.6 °F 68% 29.44 in 10.0 mi SSW 25.3 mph 35.7 mph N/A   Overcast
12:15 PM 64.4 °F - 55.4 °F 73% 29.42 in 10.0 mi SSW 23.0 mph 32.2 mph N/A   Overcast
12:35 PM 66.2 °F - 55.4 °F 68% 29.40 in 10.0 mi SSW 25.3 mph 35.7 mph N/A   Overcast
12:55 PM 66.2 °F - 55.4 °F 68% 29.39 in 10.0 mi SSW 19.6 mph 33.4 mph N/A   Overcast
1:15 PM 66.2 °F - 55.4 °F 68% 29.38 in 10.0 mi SSW 24.2 mph 33.4 mph N/A   Mostly Cloudy
1:35 PM 66.2 °F - 55.4 °F 68% 29.38 in 10.0 mi South 21.9 mph 42.6 mph N/A   Overcast
1:55 PM 66.2 °F - 55.4 °F 68% 29.36 in 10.0 mi South 25.3 mph 34.5 mph N/A   Overcast
2:15 PM 66.2 °F - 55.4 °F 68% 29.37 in 10.0 mi SSW 24.2 mph 32.2 mph N/A   Overcast
2:35 PM 66.2 °F - 55.4 °F 68% 29.36 in 9.0 mi South 25.3 mph 35.7 mph N/A   Overcast
2:55 PM 66.2 °F - 57.2 °F 73% 29.35 in 10.0 mi South 20.7 mph 29.9 mph 0.01 in Rain Light Rain
3:15 PM 66.2 °F - 55.4 °F 68% 29.35 in 10.0 mi South 23.0 mph 34.5 mph N/A   Scattered Clouds
3:35 PM 66.2 °F - 55.4 °F 68% 29.35 in 10.0 mi South 23.0 mph 32.2 mph N/A   Mostly Cloudy
3:55 PM 66.2 °F - 55.4 °F 68% 29.36 in 10.0 mi South 20.7 mph 31.1 mph N/A   Mostly Cloudy
4:15 PM 66.2 °F - 55.4 °F 68% 29.36 in 10.0 mi SSW 23.0 mph 31.1 mph N/A   Scattered Clouds
4:35 PM 66.2 °F - 55.4 °F 68% 29.37 in 10.0 mi South 21.9 mph 31.1 mph N/A   Partly Cloudy
4:55 PM 64.4 °F - 55.4 °F 73% 29.37 in 10.0 mi South 19.6 mph 29.9 mph N/A   Scattered Clouds
5:15 PM 64.4 °F - 55.4 °F 73% 29.39 in 8.0 mi South 15.0 mph 24.2 mph N/A   Mostly Cloudy
5:35 PM 62.6 °F - 55.4 °F 77% 29.39 in 10.0 mi South 18.4 mph - N/A   Mostly Cloudy
5:55 PM 62.6 °F - 55.4 °F 77% 29.40 in 10.0 mi South 16.1 mph - N/A   Scattered Clouds
6:15 PM 62.6 °F - 55.4 °F 77% 29.41 in 10.0 mi South 16.1 mph 21.9 mph N/A   Partly Cloudy
6:35 PM 62.6 °F - 55.4 °F 77% 29.42 in 10.0 mi South 17.3 mph 23.0 mph N/A   Clear
6:55 PM 62.6 °F - 55.4 °F 77% 29.42 in 10.0 mi South 17.3 mph 25.3 mph N/A   Scattered Clouds
7:15 PM 62.6 °F - 55.4 °F 77% 29.43 in 10.0 mi SSW 16.1 mph - N/A   Scattered Clouds
7:35 PM 62.6 °F - 55.4 °F 77% 29.44 in 10.0 mi South 12.7 mph - N/A   Partly Cloudy
7:55 PM 60.8 °F - 55.4 °F 82% 29.44 in 10.0 mi SSW 13.8 mph 19.6 mph N/A   Partly Cloudy
8:15 PM 60.8 °F - 55.4 °F 82% 29.44 in 10.0 mi SSW 11.5 mph - N/A   Mostly Cloudy
8:35 PM 62.6 °F - 55.4 °F 77% 29.44 in 10.0 mi South 11.5 mph - N/A   Overcast
8:55 PM 62.6 °F - 55.4 °F 77% 29.45 in 10.0 mi SSW 9.2 mph - N/A   Overcast
9:15 PM 62.6 °F - 55.4 °F 77% 29.45 in 10.0 mi SW 8.1 mph - N/A   Overcast
9:35 PM 60.8 °F - 55.4 °F 82% 29.44 in 10.0 mi SW 5.8 mph - N/A   Overcast
9:55 PM 59.0 °F - 55.4 °F 88% 29.44 in 10.0 mi SW 4.6 mph - N/A   Overcast
10:15 PM 59.0 °F - 55.4 °F 88% 29.44 in 10.0 mi Calm Calm 11.5 mph N/A   Overcast
10:35 PM 59.0 °F - 55.4 °F 88% 29.43 in 10.0 mi West 3.5 mph - N/A   Overcast
10:55 PM 59.0 °F - 55.4 °F 88% 29.44 in 10.0 mi SW 5.8 mph - N/A   Overcast
11:15 PM 59.0 °F - 55.4 °F 88% 29.44 in 10.0 mi South 5.8 mph - N/A   Mostly Cloudy
11:35 PM 59.0 °F - 55.4 °F 88% 29.44 in 10.0 mi South 6.9 mph - N/A Rain Light Rain
11:55 PM 59.0 °F - 55.4 °F 88% 29.41 in 7.0 mi South 8.1 mph - 0.01 in   Mostly Cloudy